Time,TemperatureF,DewpointF,PressureIn,WindDirection,WindDirectionDegrees,WindSpeedMPH,WindSpeedGustMPH,Humidity,HourlyPrecipIn,Conditions,Clouds,dailyrainin,SoftwareType,DateUTC
2013-07-18 00:01:00,82.0,67.7,30.16,SW,225,2.2,4.5,62,0.00,,,0.00,pywws,2013-07-18 04:01:00,
2013-07-18 00:02:00,82.0,67.7,30.16,West,270,2.2,3.8,62,0.00,,,0.00,pywws,2013-07-18 04:02:00,
2013-07-18 00:03:00,82.0,67.7,30.16,SW,225,1.6,2.2,62,0.00,,,0.00,pywws,2013-07-18 04:03:00,
2013-07-18 00:06:00,82.2,67.9,30.16,SW,225,0.7,1.6,62,0.00,,,0.00,pywws,2013-07-18 04:06:00,
2013-07-18 00:12:00,82.4,67.1,30.15,WSW,248,1.6,4.5,60,0.00,,,0.00,pywws,2013-07-18 04:12:00,
2013-07-18 00:18:00,82.4,67.1,30.15,South,180,0.7,1.6,60,0.00,,,0.00,pywws,2013-07-18 04:18:00,
2013-07-18 00:23:00,82.6,67.3,30.15,West,270,3.1,5.4,60,0.00,,,0.00,pywws,2013-07-18 04:23:00,
2013-07-18 00:29:00,82.6,67.3,30.15,SE,135,2.2,3.8,60,0.00,,,0.00,pywws,2013-07-18 04:29:00,
2013-07-18 00:35:00,82.6,67.3,30.16,SW,225,3.1,6.0,60,0.00,,,0.00,pywws,2013-07-18 04:35:00,
2013-07-18 00:40:00,82.6,67.3,30.16,SW,225,0.7,1.6,60,0.00,,,0.00,pywws,2013-07-18 04:40:00,
2013-07-18 00:46:00,82.6,67.3,30.16,North,0,4.5,6.0,60,0.00,,,0.00,pywws,2013-07-18 04:46:00,
2013-07-18 00:51:00,82.8,67.4,30.16,SW,225,0.0,1.6,60,0.00,,,0.00,pywws,2013-07-18 04:51:00,
2013-07-18 00:57:00,82.8,67.4,30.16,SW,225,1.6,3.1,60,0.00,,,0.00,pywws,2013-07-18 04:57:00,
2013-07-18 01:03:00,82.8,67.4,30.16,SW,225,3.1,5.4,60,0.00,,,0.00,pywws,2013-07-18 05:03:00,
2013-07-18 01:09:00,82.6,67.3,30.16,WSW,248,2.2,3.8,60,0.00,,,0.00,pywws,2013-07-18 05:09:00,
2013-07-18 01:15:00,82.6,67.3,30.16,West,270,1.6,3.1,60,0.00,,,0.00,pywws,2013-07-18 05:15:00,
2013-07-18 01:20:00,82.4,67.1,30.15,SW,225,1.6,2.2,60,0.00,,,0.00,pywws,2013-07-18 05:20:00,
2013-07-18 01:26:00,82.0,67.2,30.15,South,180,0.0,1.6,61,0.00,,,0.00,pywws,2013-07-18 05:26:00,
2013-07-18 01:31:00,82.0,67.2,30.15,SW,225,2.2,3.1,61,0.00,,,0.00,pywws,2013-07-18 05:31:00,
2013-07-18 01:37:00,81.7,67.4,30.15,SW,225,1.6,2.2,62,0.00,,,0.00,pywws,2013-07-18 05:37:00,
2013-07-18 01:43:00,81.7,67.4,30.15,WSW,248,0.7,1.6,62,0.00,,,0.00,pywws,2013-07-18 05:43:00,
2013-07-18 01:49:00,81.7,67.4,30.15,NW,315,0.0,0.7,62,0.00,,,0.00,pywws,2013-07-18 05:49:00,
2013-07-18 01:55:00,81.5,67.2,30.14,SW,225,0.0,0.7,62,0.00,,,0.00,pywws,2013-07-18 05:55:00,
2013-07-18 02:00:00,81.5,67.2,30.14,South,180,0.7,1.6,62,0.00,,,0.00,pywws,2013-07-18 06:00:00,
2013-07-18 02:06:00,81.3,67.0,30.14,SW,225,0.0,0.7,62,0.00,,,0.00,pywws,2013-07-18 06:06:00,
2013-07-18 02:11:00,81.3,67.0,30.14,South,180,2.2,3.8,62,0.00,,,0.00,pywws,2013-07-18 06:11:00,
2013-07-18 02:17:00,81.1,66.9,30.13,ESE,112,0.0,0.7,62,0.00,,,0.00,pywws,2013-07-18 06:17:00,
2013-07-18 02:23:00,81.0,66.7,30.13,East,90,0.0,1.6,62,0.00,,,0.00,pywws,2013-07-18 06:23:00,
2013-07-18 02:29:00,80.8,67.0,30.13,SW,225,1.6,3.1,63,0.00,,,0.00,pywws,2013-07-18 06:29:00,
2013-07-18 02:35:00,80.8,67.0,30.12,NW,315,1.6,3.8,63,0.00,,,0.00,pywws,2013-07-18 06:35:00,
2013-07-18 02:40:00,80.6,66.8,30.12,East,90,0.0,0.7,63,0.00,,,0.00,pywws,2013-07-18 06:40:00,
2013-07-18 02:46:00,80.6,66.8,30.12,South,180,0.0,0.0,63,0.00,,,0.00,pywws,2013-07-18 06:46:00,
2013-07-18 02:51:00,80.6,66.8,30.13,East,90,0.0,0.7,63,0.00,,,0.00,pywws,2013-07-18 06:51:00,
2013-07-18 02:57:00,80.6,66.8,30.13,West,270,0.0,0.7,63,0.00,,,0.00,pywws,2013-07-18 06:57:00,
2013-07-18 03:03:00,80.6,66.8,30.12,East,90,0.0,0.0,63,0.00,,,0.00,pywws,2013-07-18 07:03:00,
2013-07-18 03:09:00,80.4,67.1,30.12,NE,45,0.0,1.6,64,0.00,,,0.00,pywws,2013-07-18 07:09:00,
2013-07-18 03:15:00,80.2,66.9,30.12,East,90,0.0,0.0,64,0.00,,,0.00,pywws,2013-07-18 07:15:00,
2013-07-18 03:20:00,80.2,66.9,30.12,West,270,0.0,0.0,64,0.00,,,0.00,pywws,2013-07-18 07:20:00,
2013-07-18 03:26:00,80.1,67.2,30.12,SE,135,0.0,0.0,65,0.00,,,0.00,pywws,2013-07-18 07:26:00,
2013-07-18 03:31:00,80.1,67.2,30.12,NW,315,0.0,0.0,65,0.00,,,0.00,pywws,2013-07-18 07:31:00,
2013-07-18 03:37:00,80.1,67.2,30.12,SW,225,0.7,1.6,65,0.00,,,0.00,pywws,2013-07-18 07:37:00,
2013-07-18 03:43:00,80.1,67.2,30.12,North,0,0.0,0.7,65,0.00,,,0.00,pywws,2013-07-18 07:43:00,
2013-07-18 03:48:00,80.1,67.2,30.11,East,90,0.0,0.0,65,0.00,,,0.00,pywws,2013-07-18 07:48:00,
2013-07-18 03:54:00,80.1,67.2,30.11,East,90,0.0,0.0,65,0.00,,,0.00,pywws,2013-07-18 07:54:00,
2013-07-18 03:59:00,79.9,67.0,30.11,SE,135,0.0,0.7,65,0.00,,,0.00,pywws,2013-07-18 07:59:00,
2013-07-18 04:05:00,79.7,66.9,30.11,East,90,0.0,0.0,65,0.00,,,0.00,pywws,2013-07-18 08:05:00,
2013-07-18 04:11:00,79.5,67.1,30.11,NW,315,0.0,0.0,66,0.00,,,0.00,pywws,2013-07-18 08:11:00,
2013-07-18 04:16:00,79.5,67.1,30.11,NW,315,0.0,0.0,66,0.00,,,0.00,pywws,2013-07-18 08:16:00,
2013-07-18 04:22:00,79.3,67.0,30.11,West,270,0.0,0.7,66,0.00,,,0.00,pywws,2013-07-18 08:22:00,
2013-07-18 04:27:00,79.3,67.0,30.11,North,0,0.0,0.0,66,0.00,,,0.00,pywws,2013-07-18 08:27:00,
2013-07-18 04:33:00,79.2,66.8,30.11,North,0,0.0,0.0,66,0.00,,,0.00,pywws,2013-07-18 08:33:00,
2013-07-18 04:39:00,79.0,67.1,30.11,South,180,0.0,0.0,67,0.00,,,0.00,pywws,2013-07-18 08:39:00,
2013-07-18 04:44:00,79.0,67.1,30.12,NW,315,0.0,0.7,67,0.00,,,0.00,pywws,2013-07-18 08:44:00,
2013-07-18 04:50:00,78.8,66.9,30.12,NW,315,0.0,0.0,67,0.00,,,0.00,pywws,2013-07-18 08:50:00,
2013-07-18 04:55:00,79.0,67.1,30.12,North,0,0.0,0.7,67,0.00,,,0.00,pywws,2013-07-18 08:55:00,
2013-07-18 05:01:00,79.0,67.1,30.11,North,0,0.0,0.0,67,0.00,,,0.00,pywws,2013-07-18 09:01:00,
2013-07-18 05:07:00,78.8,66.9,30.11,SW,225,0.0,0.0,67,0.00,,,0.00,pywws,2013-07-18 09:07:00,
2013-07-18 05:12:00,78.8,66.9,30.12,SW,225,0.0,0.0,67,0.00,,,0.00,pywws,2013-07-18 09:12:00,
2013-07-18 05:19:00,78.8,66.9,30.12,SW,225,0.0,0.0,67,0.00,,,0.00,pywws,2013-07-18 09:19:00,
2013-07-18 05:24:00,78.6,67.6,30.12,NW,315,0.0,0.0,69,0.00,,,0.00,pywws,2013-07-18 09:24:00,
2013-07-18 05:30:00,78.6,67.6,30.12,SW,225,0.0,0.0,69,0.00,,,0.00,pywws,2013-07-18 09:30:00,
2013-07-18 05:35:00,78.4,67.4,30.12,South,180,0.0,0.0,69,0.00,,,0.00,pywws,2013-07-18 09:35:00,
2013-07-18 05:41:00,78.3,67.2,30.12,SW,225,0.7,0.7,69,0.00,,,0.00,pywws,2013-07-18 09:41:00,
2013-07-18 05:47:00,78.3,67.7,30.13,West,270,0.0,0.7,70,0.00,,,0.00,pywws,2013-07-18 09:47:00,
2013-07-18 05:52:00,78.3,67.7,30.12,SW,225,0.7,1.6,70,0.00,,,0.00,pywws,2013-07-18 09:52:00,
2013-07-18 05:58:00,78.3,67.7,30.12,West,270,0.7,2.2,70,0.00,,,0.00,pywws,2013-07-18 09:58:00,
2013-07-18 06:03:00,78.3,67.7,30.12,West,270,1.6,2.2,70,0.00,,,0.00,pywws,2013-07-18 10:03:00,
2013-07-18 06:09:00,78.4,67.8,30.12,SW,225,1.6,2.2,70,0.00,,,0.00,pywws,2013-07-18 10:09:00,
2013-07-18 06:15:00,78.6,68.0,30.12,West,270,1.6,2.2,70,0.00,,,0.00,pywws,2013-07-18 10:15:00,
2013-07-18 06:20:00,78.6,68.0,30.12,West,270,0.7,1.6,70,0.00,,,0.00,pywws,2013-07-18 10:20:00,
2013-07-18 06:26:00,78.8,67.7,30.13,WNW,292,1.6,2.2,69,0.00,,,0.00,pywws,2013-07-18 10:26:00,
2013-07-18 06:31:00,78.8,67.7,30.13,NW,315,3.1,4.5,69,0.00,,,0.00,pywws,2013-07-18 10:31:00,
2013-07-18 06:37:00,79.0,67.5,30.13,West,270,3.1,4.5,68,0.00,,,0.00,pywws,2013-07-18 10:37:00,
2013-07-18 06:43:00,79.2,67.7,30.14,West,270,1.6,2.2,68,0.00,,,0.00,pywws,2013-07-18 10:43:00,
2013-07-18 06:48:00,79.3,67.8,30.13,WNW,292,2.2,4.5,68,0.00,,,0.00,pywws,2013-07-18 10:48:00,
2013-07-18 06:54:00,79.3,67.8,30.13,West,270,3.1,4.5,68,0.00,,,0.00,pywws,2013-07-18 10:54:00,
2013-07-18 06:59:00,79.5,68.0,30.14,South,180,2.2,4.5,68,0.00,,,0.00,pywws,2013-07-18 10:59:00,
2013-07-18 07:05:00,79.7,68.2,30.13,West,270,3.8,4.5,68,0.00,,,0.00,pywws,2013-07-18 11:05:00,
2013-07-18 07:11:00,79.9,68.4,30.13,NW,315,1.6,2.2,68,0.00,,,0.00,pywws,2013-07-18 11:11:00,
2013-07-18 07:16:00,80.1,68.5,30.13,West,270,1.6,2.2,68,0.00,,,0.00,pywws,2013-07-18 11:16:00,
2013-07-18 07:22:00,80.4,68.9,30.13,NW,315,3.1,4.5,68,0.00,,,0.00,pywws,2013-07-18 11:22:00,
2013-07-18 07:27:00,80.4,68.9,30.14,NNW,338,1.6,3.1,68,0.00,,,0.00,pywws,2013-07-18 11:27:00,
2013-07-18 07:33:00,80.6,68.6,30.14,North,0,0.7,2.2,67,0.00,,,0.00,pywws,2013-07-18 11:33:00,
2013-07-18 07:39:00,80.8,68.8,30.14,SW,225,0.7,3.8,67,0.00,,,0.00,pywws,2013-07-18 11:39:00,
2013-07-18 07:44:00,81.0,68.9,30.14,North,0,0.0,0.7,67,0.00,,,0.00,pywws,2013-07-18 11:44:00,
2013-07-18 07:50:00,81.1,69.1,30.14,NW,315,2.2,3.1,67,0.00,,,0.00,pywws,2013-07-18 11:50:00,
2013-07-18 07:55:00,81.5,69.0,30.14,NW,315,3.8,5.4,66,0.00,,,0.00,pywws,2013-07-18 11:55:00,
2013-07-18 08:01:00,81.7,69.6,30.14,North,0,4.5,6.0,67,0.00,,,0.00,pywws,2013-07-18 12:01:00,
2013-07-18 08:07:00,81.9,69.4,30.14,NNE,22,2.2,3.8,66,0.00,,,0.00,pywws,2013-07-18 12:07:00,
2013-07-18 08:12:00,82.2,70.1,30.14,North,0,5.4,6.9,67,0.00,,,0.00,pywws,2013-07-18 12:12:00,
2013-07-18 08:18:00,82.6,70.0,30.14,NW,315,3.1,6.0,66,0.00,,,0.00,pywws,2013-07-18 12:18:00,
2013-07-18 08:23:00,82.9,70.4,30.14,NW,315,4.5,7.6,66,0.00,,,0.00,pywws,2013-07-18 12:23:00,
2013-07-18 08:29:00,83.3,70.3,30.14,NW,315,3.8,5.4,65,0.00,,,0.00,pywws,2013-07-18 12:29:00,
2013-07-18 08:35:00,83.5,70.9,30.14,West,270,4.5,5.4,66,0.00,,,0.00,pywws,2013-07-18 12:35:00,
2013-07-18 08:40:00,83.7,71.1,30.14,NW,315,3.8,5.4,66,0.00,,,0.00,pywws,2013-07-18 12:40:00,
2013-07-18 08:46:00,84.0,71.0,30.14,NNE,22,3.1,4.5,65,0.00,,,0.00,pywws,2013-07-18 12:46:00,
2013-07-18 08:51:00,84.6,71.0,30.14,NW,315,6.0,6.9,64,0.00,,,0.00,pywws,2013-07-18 12:51:00,
2013-07-18 08:57:00,84.9,71.4,30.14,NNW,338,1.6,3.8,64,0.00,,,0.00,pywws,2013-07-18 12:57:00,
2013-07-18 09:03:00,85.3,71.7,30.14,NW,315,4.5,6.0,64,0.00,,,0.00,pywws,2013-07-18 13:03:00,
2013-07-18 09:08:00,85.8,71.7,30.14,West,270,3.8,5.4,63,0.00,,,0.00,pywws,2013-07-18 13:08:00,
2013-07-18 09:14:00,86.0,71.0,30.14,North,0,3.8,5.4,61,0.00,,,0.00,pywws,2013-07-18 13:14:00,
2013-07-18 09:19:00,86.2,70.6,30.14,North,0,6.0,7.6,60,0.00,,,0.00,pywws,2013-07-18 13:19:00,
2013-07-18 09:25:00,86.7,71.1,30.14,SW,225,2.2,3.8,60,0.00,,,0.00,pywws,2013-07-18 13:25:00,
2013-07-18 09:31:00,87.4,71.3,30.13,North,0,3.8,5.4,59,0.00,,,0.00,pywws,2013-07-18 13:31:00,
2013-07-18 09:36:00,88.0,70.8,30.13,NW,315,3.1,3.8,57,0.00,,,0.00,pywws,2013-07-18 13:36:00,
2013-07-18 09:42:00,88.5,70.8,30.14,East,90,1.6,3.1,56,0.00,,,0.00,pywws,2013-07-18 13:42:00,
2013-07-18 09:47:00,88.9,71.1,30.14,NW,315,3.8,6.0,56,0.00,,,0.00,pywws,2013-07-18 13:47:00,
2013-07-18 09:53:00,89.2,70.9,30.13,North,0,5.4,6.9,55,0.00,,,0.00,pywws,2013-07-18 13:53:00,
2013-07-18 09:59:00,89.8,71.4,30.13,NW,315,3.8,6.0,55,0.00,,,0.00,pywws,2013-07-18 13:59:00,
2013-07-18 10:04:00,90.1,71.2,30.13,NW,315,4.5,6.0,54,0.00,,,0.00,pywws,2013-07-18 14:04:00,
2013-07-18 10:10:00,90.5,71.5,30.14,North,0,1.6,3.8,54,0.00,,,0.00,pywws,2013-07-18 14:10:00,
2013-07-18 10:15:00,91.4,72.4,30.14,WNW,292,6.9,8.3,54,0.00,,,0.00,pywws,2013-07-18 14:15:00,
2013-07-18 10:21:00,91.8,71.6,30.13,NW,315,6.9,9.8,52,0.00,,,0.00,pywws,2013-07-18 14:21:00,
2013-07-18 10:27:00,91.8,71.6,30.14,NW,315,3.8,6.0,52,0.00,,,0.00,pywws,2013-07-18 14:27:00,
2013-07-18 10:32:00,91.9,71.2,30.14,NW,315,2.2,3.1,51,0.00,,,0.00,pywws,2013-07-18 14:32:00,
2013-07-18 10:38:00,92.3,72.6,30.14,NE,45,1.6,3.1,53,0.00,,,0.00,pywws,2013-07-18 14:38:00,
2013-07-18 10:43:00,93.0,72.7,30.13,NW,315,6.9,9.2,52,0.00,,,0.00,pywws,2013-07-18 14:43:00,
2013-07-18 10:49:00,93.2,71.2,30.13,NW,315,3.8,6.9,49,0.00,,,0.00,pywws,2013-07-18 14:49:00,
2013-07-18 10:55:00,92.7,70.7,30.13,NW,315,4.5,6.9,49,0.00,,,0.00,pywws,2013-07-18 14:55:00,
2013-07-18 11:00:00,92.5,71.1,30.13,NW,315,4.5,6.9,50,0.00,,,0.00,pywws,2013-07-18 15:00:00,
2013-07-18 11:06:00,92.7,70.7,30.13,NW,315,3.8,9.8,49,0.00,,,0.00,pywws,2013-07-18 15:06:00,
2013-07-18 11:11:00,93.0,71.6,30.13,NNW,338,5.4,7.6,50,0.00,,,0.00,pywws,2013-07-18 15:11:00,
2013-07-18 11:17:00,93.6,69.6,30.13,NW,315,5.4,6.9,46,0.00,,,0.00,pywws,2013-07-18 15:17:00,
2013-07-18 11:23:00,93.6,69.6,30.13,NNE,22,5.4,6.9,46,0.00,,,0.00,pywws,2013-07-18 15:23:00,
2013-07-18 11:28:00,93.9,69.3,30.13,North,0,4.5,7.6,45,0.00,,,0.00,pywws,2013-07-18 15:28:00,
2013-07-18 11:34:00,94.1,70.1,30.12,NE,45,6.0,9.2,46,0.00,,,0.00,pywws,2013-07-18 15:34:00,
2013-07-18 11:39:00,94.3,69.6,30.12,North,0,1.6,3.8,45,0.00,,,0.00,pywws,2013-07-18 15:39:00,
2013-07-18 11:45:00,94.5,70.4,30.13,NW,315,6.9,9.2,46,0.00,,,0.00,pywws,2013-07-18 15:45:00,
2013-07-18 11:51:00,94.5,69.8,30.13,SW,225,2.2,3.8,45,0.00,,,0.00,pywws,2013-07-18 15:51:00,
2013-07-18 11:56:00,94.8,70.1,30.13,NW,315,3.1,4.5,45,0.00,,,0.00,pywws,2013-07-18 15:56:00,
2013-07-18 12:02:00,95.0,68.9,30.13,NW,315,4.5,6.9,43,0.00,,,0.00,pywws,2013-07-18 16:02:00,
2013-07-18 12:07:00,94.8,70.1,30.13,NNW,338,4.5,6.0,45,0.00,,,0.00,pywws,2013-07-18 16:07:00,
2013-07-18 12:13:00,94.6,69.9,30.13,NW,315,3.1,4.5,45,0.00,,,0.00,pywws,2013-07-18 16:13:00,
2013-07-18 12:19:00,95.0,70.3,30.12,SW,225,3.1,5.4,45,0.00,,,0.00,pywws,2013-07-18 16:19:00,
2013-07-18 12:24:00,95.5,70.8,30.12,NW,315,5.4,8.3,45,0.00,,,0.00,pywws,2013-07-18 16:24:00,
2013-07-18 12:30:00,96.3,70.7,30.12,North,0,6.0,7.6,44,0.00,,,0.00,pywws,2013-07-18 16:30:00,
2013-07-18 12:35:00,95.9,69.7,30.12,North,0,3.8,6.9,43,0.00,,,0.00,pywws,2013-07-18 16:35:00,
2013-07-18 12:41:00,95.9,69.1,30.12,NW,315,7.6,9.8,42,0.00,,,0.00,pywws,2013-07-18 16:41:00,
2013-07-18 12:47:00,95.5,68.7,30.12,WNW,292,7.6,9.2,42,0.00,,,0.00,pywws,2013-07-18 16:47:00,
2013-07-18 12:52:00,95.5,69.4,30.11,NE,45,3.1,5.4,43,0.00,,,0.00,pywws,2013-07-18 16:52:00,
2013-07-18 12:58:00,95.5,68.7,30.11,WSW,248,6.0,7.6,42,0.00,,,0.00,pywws,2013-07-18 16:58:00,
2013-07-18 13:03:00,95.5,69.4,30.12,North,0,2.2,4.5,43,0.00,,,0.00,pywws,2013-07-18 17:03:00,
2013-07-18 13:05:00,95.5,69.4,30.11,NW,315,2.2,5.4,43,0.00,,,0.00,pywws,2013-07-18 17:05:00,
2013-07-18 13:11:00,96.1,69.9,30.11,SE,135,1.6,3.1,43,0.00,,,0.00,pywws,2013-07-18 17:11:00,
2013-07-18 13:16:00,96.8,69.2,30.11,NNE,22,4.5,6.9,41,0.00,,,0.00,pywws,2013-07-18 17:16:00,
2013-07-18 13:22:00,97.2,70.2,30.11,SE,135,2.2,3.8,42,0.00,,,0.00,pywws,2013-07-18 17:22:00,
2013-07-18 13:27:00,97.9,70.8,30.11,North,0,5.4,6.9,42,0.00,,,0.00,pywws,2013-07-18 17:27:00,
2013-07-18 13:33:00,98.2,71.1,30.11,East,90,3.1,5.4,42,0.00,,,0.00,pywws,2013-07-18 17:33:00,
2013-07-18 13:39:00,98.2,71.1,30.11,West,270,3.8,8.3,42,0.00,,,0.00,pywws,2013-07-18 17:39:00,
2013-07-18 13:44:00,98.1,70.3,30.10,North,0,7.6,9.8,41,0.00,,,0.00,pywws,2013-07-18 17:44:00,
2013-07-18 13:50:00,97.7,69.2,30.10,NW,315,2.2,3.8,40,0.00,,,0.00,pywws,2013-07-18 17:50:00,
2013-07-18 13:55:00,97.2,70.2,30.10,NW,315,3.8,6.0,42,0.00,,,0.00,pywws,2013-07-18 17:55:00,
2013-07-18 14:01:00,97.2,70.2,30.10,North,0,6.0,8.3,42,0.00,,,0.00,pywws,2013-07-18 18:01:00,
2013-07-18 14:07:00,97.2,70.2,30.10,SW,225,8.3,10.7,42,0.00,,,0.00,pywws,2013-07-18 18:07:00,
2013-07-18 14:12:00,97.5,70.5,30.09,NW,315,6.0,6.9,42,0.00,,,0.00,pywws,2013-07-18 18:12:00,
2013-07-18 14:18:00,97.9,70.8,30.09,North,0,3.1,4.5,42,0.00,,,0.00,pywws,2013-07-18 18:18:00,
2013-07-18 14:23:00,97.9,70.1,30.09,NNW,338,4.5,8.3,41,0.00,,,0.00,pywws,2013-07-18 18:23:00,
2013-07-18 14:29:00,97.9,68.7,30.09,NW,315,2.2,3.8,39,0.00,,,0.00,pywws,2013-07-18 18:29:00,
2013-07-18 14:35:00,97.7,68.5,30.09,NW,315,6.9,9.8,39,0.00,,,0.00,pywws,2013-07-18 18:35:00,
2013-07-18 14:40:00,97.7,70.7,30.09,North,0,3.8,6.9,42,0.00,,,0.00,pywws,2013-07-18 18:40:00,
2013-07-18 14:46:00,97.9,70.1,30.09,North,0,5.4,9.8,41,0.00,,,0.00,pywws,2013-07-18 18:46:00,
2013-07-18 14:51:00,97.9,69.4,30.09,NNE,22,3.1,5.4,40,0.00,,,0.00,pywws,2013-07-18 18:51:00,
2013-07-18 14:57:00,97.7,69.2,30.09,NW,315,3.1,4.5,40,0.00,,,0.00,pywws,2013-07-18 18:57:00,
2013-07-18 15:03:00,97.7,69.2,30.08,East,90,6.9,9.2,40,0.00,,,0.00,pywws,2013-07-18 19:03:00,
2013-07-18 15:08:00,98.1,71.0,30.08,SE,135,2.2,4.5,42,0.00,,,0.00,pywws,2013-07-18 19:08:00,
2013-07-18 15:14:00,98.4,69.9,30.08,NW,315,3.1,3.8,40,0.00,,,0.00,pywws,2013-07-18 19:14:00,
2013-07-18 15:19:00,98.6,68.5,30.07,NW,315,1.6,3.8,38,0.00,,,0.00,pywws,2013-07-18 19:19:00,
2013-07-18 15:25:00,98.8,68.7,30.07,NW,315,5.4,8.3,38,0.00,,,0.00,pywws,2013-07-18 19:25:00,
2013-07-18 15:31:00,98.8,69.5,30.07,West,270,3.8,7.6,39,0.00,,,0.00,pywws,2013-07-18 19:31:00,
2013-07-18 15:36:00,98.4,69.1,30.07,SSE,158,3.1,6.0,39,0.00,,,0.00,pywws,2013-07-18 19:36:00,
2013-07-18 15:42:00,98.2,68.2,30.08,West,270,5.4,9.2,38,0.00,,,0.00,pywws,2013-07-18 19:42:00,
2013-07-18 15:47:00,98.4,69.1,30.07,NW,315,5.4,8.3,39,0.00,,,0.00,pywws,2013-07-18 19:47:00,
2013-07-18 15:53:00,98.6,67.8,30.07,NW,315,4.5,6.0,37,0.00,,,0.00,pywws,2013-07-18 19:53:00,
2013-07-18 15:59:00,98.1,68.1,30.07,West,270,6.0,9.8,38,0.00,,,0.00,pywws,2013-07-18 19:59:00,
2013-07-18 16:04:00,97.9,68.7,30.07,SSW,202,8.3,9.8,39,0.00,,,0.00,pywws,2013-07-18 20:04:00,
2013-07-18 16:10:00,97.9,68.7,30.06,NW,315,5.4,8.3,39,0.00,,,0.00,pywws,2013-07-18 20:10:00,
2013-07-18 16:15:00,97.7,69.2,30.06,NW,315,4.5,7.6,40,0.00,,,0.00,pywws,2013-07-18 20:15:00,
2013-07-18 16:21:00,97.9,70.1,30.06,NW,315,11.4,14.5,41,0.00,,,0.00,pywws,2013-07-18 20:21:00,
2013-07-18 16:27:00,97.7,69.2,30.06,NW,315,6.0,10.7,40,0.00,,,0.00,pywws,2013-07-18 20:27:00,
2013-07-18 16:32:00,97.5,69.1,30.06,NW,315,8.3,10.7,40,0.00,,,0.00,pywws,2013-07-18 20:32:00,
2013-07-18 16:38:00,97.3,68.9,30.06,North,0,3.1,5.4,40,0.00,,,0.00,pywws,2013-07-18 20:38:00,
2013-07-18 16:43:00,97.3,69.6,30.06,West,270,2.2,3.1,41,0.00,,,0.00,pywws,2013-07-18 20:43:00,
2013-07-18 16:45:00,97.5,70.5,30.06,North,0,3.8,5.4,42,0.00,,,0.00,pywws,2013-07-18 20:45:00,
2013-07-18 16:51:00,97.7,69.2,30.06,North,0,7.6,9.2,40,0.00,,,0.00,pywws,2013-07-18 20:51:00,
2013-07-18 16:56:00,97.7,69.2,30.06,NW,315,5.4,9.2,40,0.00,,,0.00,pywws,2013-07-18 20:56:00,
2013-07-18 17:02:00,97.5,69.1,30.05,SW,225,2.2,4.5,40,0.00,,,0.00,pywws,2013-07-18 21:02:00,
2013-07-18 17:07:00,97.3,68.9,30.05,West,270,5.4,9.2,40,0.00,,,0.00,pywws,2013-07-18 21:07:00,
2013-07-18 17:13:00,97.2,69.5,30.05,West,270,3.8,6.9,41,0.00,,,0.00,pywws,2013-07-18 21:13:00,
2013-07-18 17:19:00,97.3,69.6,30.05,North,0,6.0,7.6,41,0.00,,,0.00,pywws,2013-07-18 21:19:00,
2013-07-18 17:24:00,97.2,68.8,30.05,South,180,6.0,8.3,40,0.00,,,0.00,pywws,2013-07-18 21:24:00,
2013-07-18 17:30:00,97.3,68.9,30.05,WSW,248,5.4,6.9,40,0.00,,,0.00,pywws,2013-07-18 21:30:00,
2013-07-18 17:35:00,96.8,68.4,30.04,North,0,2.2,3.8,40,0.00,,,0.00,pywws,2013-07-18 21:35:00,
2013-07-18 17:41:00,96.3,69.4,30.05,NW,315,2.2,3.8,42,0.00,,,0.00,pywws,2013-07-18 21:41:00,
2013-07-18 17:47:00,95.7,69.6,30.05,North,0,3.8,5.4,43,0.00,,,0.00,pywws,2013-07-18 21:47:00,
2013-07-18 17:52:00,95.7,69.6,30.05,NW,315,4.5,6.0,43,0.00,,,0.00,pywws,2013-07-18 21:52:00,
2013-07-18 17:58:00,95.7,69.6,30.05,West,270,3.8,4.5,43,0.00,,,0.00,pywws,2013-07-18 21:58:00,
2013-07-18 18:03:00,96.1,69.9,30.05,West,270,1.6,3.1,43,0.00,,,0.00,pywws,2013-07-18 22:03:00,
2013-07-18 18:09:00,96.4,70.2,30.06,NW,315,4.5,6.0,43,0.00,,,0.00,pywws,2013-07-18 22:09:00,
2013-07-18 18:15:00,96.6,70.4,30.05,West,270,3.8,5.4,43,0.00,,,0.00,pywws,2013-07-18 22:15:00,
2013-07-18 18:20:00,96.6,70.4,30.05,SW,225,3.8,8.3,43,0.00,,,0.00,pywws,2013-07-18 22:20:00,
2013-07-18 18:26:00,96.4,70.2,30.06,NE,45,5.4,9.2,43,0.00,,,0.00,pywws,2013-07-18 22:26:00,
2013-07-18 18:31:00,96.3,70.1,30.05,SW,225,3.8,6.0,43,0.00,,,0.00,pywws,2013-07-18 22:31:00,
2013-07-18 18:37:00,96.1,69.9,30.06,East,90,4.5,8.3,43,0.00,,,0.00,pywws,2013-07-18 22:37:00,
2013-07-18 18:43:00,95.7,69.6,30.06,NW,315,5.4,6.9,43,0.00,,,0.00,pywws,2013-07-18 22:43:00,
2013-07-18 18:48:00,95.4,69.3,30.06,NE,45,3.1,5.4,43,0.00,,,0.00,pywws,2013-07-18 22:48:00,
2013-07-18 18:54:00,94.8,69.5,30.06,North,0,3.1,5.4,44,0.00,,,0.00,pywws,2013-07-18 22:54:00,
2013-07-18 18:59:00,94.5,69.1,30.06,North,0,1.6,2.2,44,0.00,,,0.00,pywws,2013-07-18 22:59:00,
2013-07-18 19:05:00,94.3,69.0,30.06,NW,315,0.7,1.6,44,0.00,,,0.00,pywws,2013-07-18 23:05:00,
2013-07-18 19:11:00,94.3,69.0,30.06,NW,315,3.1,5.4,44,0.00,,,0.00,pywws,2013-07-18 23:11:00,
2013-07-18 19:16:00,95.0,68.9,30.06,WNW,292,3.8,5.4,43,0.00,,,0.00,pywws,2013-07-18 23:16:00,
2013-07-18 19:22:00,95.4,69.3,30.06,North,0,2.2,3.1,43,0.00,,,0.00,pywws,2013-07-18 23:22:00,
2013-07-18 19:27:00,94.8,69.5,30.06,WNW,292,0.0,1.6,44,0.00,,,0.00,pywws,2013-07-18 23:27:00,
2013-07-18 19:33:00,94.3,69.0,30.06,SW,225,0.7,1.6,44,0.00,,,0.00,pywws,2013-07-18 23:33:00,
2013-07-18 19:39:00,93.9,69.3,30.07,North,0,1.6,3.1,45,0.00,,,0.00,pywws,2013-07-18 23:39:00,
2013-07-18 19:44:00,93.4,68.8,30.06,NW,315,1.6,3.1,45,0.00,,,0.00,pywws,2013-07-18 23:44:00,
2013-07-18 19:50:00,93.0,69.1,30.06,NW,315,1.6,3.1,46,0.00,,,0.00,pywws,2013-07-18 23:50:00,
2013-07-18 19:55:00,92.8,69.0,30.06,NW,315,2.2,3.1,46,0.00,,,0.00,pywws,2013-07-18 23:55:00,
2013-07-18 20:01:00,92.7,68.8,30.06,NW,315,0.7,1.6,46,0.00,,,0.00,pywws,2013-07-19 00:01:00,
2013-07-18 20:07:00,92.5,68.6,30.06,West,270,2.2,3.1,46,0.00,,,0.00,pywws,2013-07-19 00:07:00,
2013-07-18 20:12:00,92.3,68.5,30.06,SW,225,1.6,2.2,46,0.00,,,0.00,pywws,2013-07-19 00:12:00,
2013-07-18 20:18:00,91.9,68.2,30.06,West,270,0.0,0.7,46,0.00,,,0.00,pywws,2013-07-19 00:18:00,
2013-07-18 20:23:00,91.8,68.6,30.06,West,270,2.2,3.1,47,0.00,,,0.00,pywws,2013-07-19 00:23:00,
2013-07-18 20:29:00,91.6,68.5,30.06,West,270,1.6,3.1,47,0.00,,,0.00,pywws,2013-07-19 00:29:00,
2013-07-18 20:35:00,91.4,68.3,30.06,West,270,0.0,0.7,47,0.00,,,0.00,pywws,2013-07-19 00:35:00,
2013-07-18 20:40:00,91.0,67.3,30.06,SW,225,0.0,0.7,46,0.00,,,0.00,pywws,2013-07-19 00:40:00,
2013-07-18 20:46:00,90.9,67.8,30.06,SW,225,0.0,1.6,47,0.00,,,0.00,pywws,2013-07-19 00:46:00,
2013-07-18 20:51:00,90.5,67.5,30.06,WSW,248,0.0,0.0,47,0.00,,,0.00,pywws,2013-07-19 00:51:00,
2013-07-18 20:57:00,90.1,67.1,30.07,SE,135,0.0,0.7,47,0.00,,,0.00,pywws,2013-07-19 00:57:00,
2013-07-18 21:03:00,89.8,66.8,30.06,West,270,0.0,0.7,47,0.00,,,0.00,pywws,2013-07-19 01:03:00,
2013-07-18 21:08:00,89.4,67.7,30.07,NW,315,0.0,0.0,49,0.00,,,0.00,pywws,2013-07-19 01:08:00,
2013-07-18 21:14:00,89.2,67.5,30.07,North,0,0.0,0.0,49,0.00,,,0.00,pywws,2013-07-19 01:14:00,
2013-07-18 21:19:00,88.9,67.2,30.07,SE,135,0.0,0.7,49,0.00,,,0.00,pywws,2013-07-19 01:19:00,
2013-07-18 21:25:00,88.7,67.6,30.07,NW,315,0.0,0.7,50,0.00,,,0.00,pywws,2013-07-19 01:25:00,
2013-07-18 21:31:00,88.7,68.2,30.07,NE,45,1.6,2.2,51,0.00,,,0.00,pywws,2013-07-19 01:31:00,
2013-07-18 21:36:00,88.5,68.0,30.07,NE,45,0.0,0.7,51,0.00,,,0.00,pywws,2013-07-19 01:36:00,
2013-07-18 21:42:00,88.7,68.2,30.07,SW,225,0.0,1.6,51,0.00,,,0.00,pywws,2013-07-19 01:42:00,
2013-07-18 21:47:00,88.7,68.2,30.07,SW,225,0.7,1.6,51,0.00,,,0.00,pywws,2013-07-19 01:47:00,
2013-07-18 21:53:00,88.7,68.2,30.07,North,0,0.0,0.7,51,0.00,,,0.00,pywws,2013-07-19 01:53:00,
2013-07-18 21:59:00,88.5,68.6,30.06,SW,225,0.0,0.7,52,0.00,,,0.00,pywws,2013-07-19 01:59:00,
2013-07-18 22:04:00,88.3,68.4,30.06,SW,225,0.7,1.6,52,0.00,,,0.00,pywws,2013-07-19 02:04:00,
2013-07-18 22:10:00,88.5,68.6,30.06,West,270,0.7,1.6,52,0.00,,,0.00,pywws,2013-07-19 02:10:00,
2013-07-18 22:15:00,88.7,68.8,30.06,SW,225,0.0,1.6,52,0.00,,,0.00,pywws,2013-07-19 02:15:00,
2013-07-18 22:21:00,88.7,68.8,30.06,NW,315,0.0,0.7,52,0.00,,,0.00,pywws,2013-07-19 02:21:00,
2013-07-18 22:27:00,88.7,68.8,30.06,SW,225,0.7,1.6,52,0.00,,,0.00,pywws,2013-07-19 02:27:00,
2013-07-18 22:32:00,88.5,68.6,30.06,East,90,0.0,0.7,52,0.00,,,0.00,pywws,2013-07-19 02:32:00,
2013-07-18 22:38:00,88.3,69.0,30.06,East,90,0.0,0.0,53,0.00,,,0.00,pywws,2013-07-19 02:38:00,
2013-07-18 22:43:00,88.0,68.7,30.06,SW,225,1.6,3.1,53,0.00,,,0.00,pywws,2013-07-19 02:43:00,
2013-07-18 22:49:00,87.6,68.9,30.06,South,180,0.7,1.6,54,0.00,,,0.00,pywws,2013-07-19 02:49:00,
2013-07-18 22:55:00,87.4,68.7,30.05,South,180,0.7,1.6,54,0.00,,,0.00,pywws,2013-07-19 02:55:00,
2013-07-18 23:00:00,87.3,69.1,30.05,East,90,0.0,0.7,55,0.00,,,0.00,pywws,2013-07-19 03:00:00,
2013-07-18 23:06:00,87.1,68.9,30.05,SE,135,0.0,0.7,55,0.00,,,0.00,pywws,2013-07-19 03:06:00,
2013-07-18 23:11:00,87.1,68.9,30.04,SE,135,0.0,0.7,55,0.00,,,0.00,pywws,2013-07-19 03:11:00,
2013-07-18 23:17:00,86.9,68.8,30.04,East,90,0.0,0.7,55,0.00,,,0.00,pywws,2013-07-19 03:17:00,
2013-07-18 23:23:00,86.7,69.1,30.04,SE,135,0.0,0.7,56,0.00,,,0.00,pywws,2013-07-19 03:23:00,
2013-07-18 23:28:00,86.4,68.8,30.04,SE,135,0.0,0.7,56,0.00,,,0.00,pywws,2013-07-19 03:28:00,
2013-07-18 23:34:00,86.2,68.6,30.04,SE,135,0.0,0.0,56,0.00,,,0.00,pywws,2013-07-19 03:34:00,
2013-07-18 23:39:00,86.2,69.1,30.03,East,90,0.7,1.6,57,0.00,,,0.00,pywws,2013-07-19 03:39:00,
2013-07-18 23:45:00,86.0,69.0,30.04,SE,135,0.0,0.7,57,0.00,,,0.00,pywws,2013-07-19 03:45:00,
2013-07-18 23:51:00,85.8,69.3,30.04,SE,135,0.0,0.0,58,0.00,,,0.00,pywws,2013-07-19 03:51:00,
2013-07-18 23:57:00,85.6,69.1,30.04,SW,225,0.7,2.2,58,0.00,,,0.00,pywws,2013-07-19 03:57:00,